Find Starlink 6118

NORAD ID: 57106 Int'l Des: 2023-090 Owner: SPXS Country: US Constellation: starlink operational
LEOCIRCULAR

現在のビュー

3D地球を読み込み中...

About Starlink 6118

Starlink 6118 (NORAD 57106) is a starlink constellation satellite (v1.5) launched Jun 23, 2023 by SPXS of US. It operates in LEO, CIRCULAR orbit with a mass of 305.00 kg.

Starlink 6118について

説明を読み込み中...

次回通過

Passes for default location (London). Set your location on the main map for personalized predictions.

高度履歴

Loading altitude history...

軌道要素

1 57106U 23090F 26171.42350918 .00000329 00000-0 21489-4 0 9994
2 57106 43.0069 61.4193 0001489 273.7329 86.3353 15.27577953166048
Epoch: Jun 20, 2026 • Age: 40 hours

現在のステータス

高度 487.3 km
速度 7.62 km/s
衛星直下点 -20.24°S, 49.85°W
打ち上げ日 Jun 23, 2023
運用期間 2.9 years
タイプ internet

技術仕様

分類 Payload
質量 305.00 kg
乾燥質量 290.00 kg
総質量 305.00 kg
長さ 0.20 m
直径 2.80 m
スパン 9.00 m
形状 Box + pan
製造者 SPXS
バスタイプ Starlink
フェーズステータス In Orbit
所有者/国 SPXS/US

Most Searched